Palma de Mallorca, Spain

6:10 AM CET on December 04, 2016 (GMT +0100)
Palma De Mallorca

Weather History for LEPA - January, 2013

Change the Weather History Date:

Thursday, January 3, 2013

  Actual Average Record
Temperature  
Mean Temperature 50 °F -  
Max Temperature 56 °F 58 °F 68 °F (2003)
Min Temperature 44 °F 40 °F 31 °F (2015)
Degree Days  
Heating Degree Days 15    
Moisture  
Dew Point 46 °F    
Average Humidity 78    
Maximum Humidity 93    
Minimum Humidity 54    
Precipitation  
Precipitation 0.04 in - - ()
Sea Level Pressure  
Sea Level Pressure 30.49 in    
Wind  
Wind Speed 9 mph ()    
Max Wind Speed 20 mph    
Max Gust Speed -    
Visibility 6.3 miles    
Events Rain    
Averages and records for this station are not official NWS values.
T = Trace of Precipitation, MM = Missing Value Source: Averaged Metar Reports

Daily Weather History Graph

Daily Weather History Graph

Search for Another Location

Airport or City:

Trip Planner

Search our weather history database for the weather conditions in past years. The results will help you decide how hot, cold, wet, or windy it might be!

Date:

Astronomy

Jan. 03, 2013 Rise Set
Actual Time 8:09 AM CET 5:37 PM CET
Civil Twilight 7:39 AM CET 6:07 PM CET
Nautical Twilight 7:06 AM CET 6:41 PM CET
Astronomical Twilight 6:33 AM CET 7:14 PM CET
Moon 11:55 PM CET (1/3) 11:15 AM CET (1/3)
Length of Visible Light 10h 28m
Length of Day
9h 27m
Waning Gibbous, 68% of the Moon is Illuminated
Jan 3
Waning Gibbous
Jan 5
Last Quarter
Jan 11
New
Jan 19
First Quarter
Jan 27
Full

Hourly Weather History & Observations

Time (CET) Temp. Windchill Dew Point Humidity Pressure Visibility Wind Dir Wind Speed Gust Speed Precip Events Conditions
12:00 AM 46.4 °F 43.5 °F 41.0 °F 81% 30.33 in 6.2 mi NE 5.8 mph - N/A   Partly Cloudy
12:30 AM 48.2 °F - 37.4 °F 66% 30.33 in 6.2 mi NE 11.5 mph - N/A   Partly Cloudy
1:00 AM 46 °F - 35 °F 54% 30.35 in 12 mi ENE 11.5 mph - -   Partly Cloudy
1:00 AM 46.4 °F 40.7 °F 37.4 °F 71% 30.33 in 6.2 mi ENE 12.7 mph - N/A   Partly Cloudy
1:30 AM 46.4 °F 44.3 °F 37.4 °F 71% 30.33 in 6.2 mi ENE 4.6 mph - N/A   Partly Cloudy
2:00 AM 48.2 °F - 37.4 °F 66% 30.36 in 6.2 mi NE 10.4 mph - N/A   Partly Cloudy
2:30 AM 48.2 °F - 39.2 °F 71% 30.36 in 6.2 mi NE 9.2 mph - N/A   Partly Cloudy
3:00 AM 48.2 °F - 37.4 °F 66% 30.36 in 6.2 mi NE 12.7 mph - N/A   Partly Cloudy
3:30 AM 48.2 °F - 39.2 °F 71% 30.36 in 6.2 mi NNE 12.7 mph - N/A   Scattered Clouds
4:00 AM 50.0 °F - 39.2 °F 66% 30.36 in 6.2 mi NNE 10.4 mph - N/A   Mostly Cloudy
4:30 AM 51.8 °F - 41.0 °F 67% 30.36 in 6.2 mi NNE 11.5 mph - N/A   Mostly Cloudy
5:00 AM 51.8 °F - 42.8 °F 71% 30.36 in 6.2 mi NNE 10.4 mph - N/A   Mostly Cloudy
5:30 AM 51.8 °F - 42.8 °F 71% 30.39 in 6.2 mi NNE 10.4 mph - N/A   Mostly Cloudy
6:00 AM 51.8 °F - 42.8 °F 71% 30.39 in 6.2 mi NE 3.5 mph - N/A   Mostly Cloudy
6:30 AM 50.0 °F - 42.8 °F 76% 30.42 in 6.2 mi NNE 9.2 mph - N/A   Mostly Cloudy
7:00 AM 48 °F - 42 °F 73% 30.43 in 6 mi NNE 1.2 mph - - Rain Light Rain
7:00 AM 50.0 °F - 44.6 °F 82% 30.42 in 5.6 mi NNE 6.9 mph - N/A Rain Light Rain
7:30 AM 50.0 °F - 44.6 °F 82% 30.42 in 5.6 mi ENE 4.6 mph - N/A   Light Drizzle
8:00 AM 48.2 °F - 46.4 °F 93% 30.42 in 5.6 mi WNW 1.2 mph - N/A   Light Drizzle
8:30 AM 48.2 °F - 46.4 °F 93% 30.45 in 5.6 mi Variable 1.2 mph - N/A   Mostly Cloudy
9:00 AM 51.8 °F - 46.4 °F 82% 30.45 in 5.6 mi NNE 13.8 mph - N/A   Scattered Clouds
9:30 AM 53.6 °F - 46.4 °F 77% 30.48 in 5.6 mi NE 15.0 mph - N/A Rain Light Rain
10:00 AM 53.6 °F - 48.2 °F 82% 30.48 in 5.6 mi NE 18.4 mph - N/A   Scattered Clouds
10:30 AM 55.4 °F - 46.4 °F 72% 30.51 in 5.6 mi NE 15.0 mph - N/A   Scattered Clouds
11:00 AM 55.4 °F - 48.2 °F 77% 30.51 in 6.2 mi NE 13.8 mph - N/A   Scattered Clouds
11:30 AM 55.4 °F - 48.2 °F 77% 30.51 in 6.2 mi NE 18.4 mph - N/A   Partly Cloudy
12:00 PM 57.2 °F - 48.2 °F 72% 30.51 in 6.2 mi NE 18.4 mph - N/A   Partly Cloudy
12:30 PM 57.2 °F - 48.2 °F 72% 30.51 in 6.2 mi NE 15.0 mph - N/A   Partly Cloudy
1:00 PM 54 °F - 48 °F 72% 30.53 in 9 mi NE 13.8 mph - - Rain Light Drizzle
1:00 PM 57.2 °F - 50.0 °F 77% 30.51 in 6.2 mi NE 19.6 mph - N/A   Partly Cloudy
2:00 PM 55.4 °F - 51.8 °F 88% 30.51 in 6.2 mi NE 15.0 mph - N/A   Light Drizzle
2:30 PM 57.2 °F - 51.8 °F 82% 30.51 in 6.2 mi NE 16.1 mph - N/A   Light Drizzle
3:00 PM 57.2 °F - 51.8 °F 82% 30.51 in 6.2 mi NE 16.1 mph - N/A   Light Drizzle
3:30 PM 57.2 °F - 50.0 °F 77% 30.51 in 6.2 mi ENE 15.0 mph - N/A   Partly Cloudy
4:00 PM 57.2 °F - 50.0 °F 77% 30.54 in 6.2 mi NE 15.0 mph - N/A   Scattered Clouds
4:30 PM 55.4 °F - 50.0 °F 82% 30.54 in 6.2 mi NE 15.0 mph - N/A   Scattered Clouds
5:00 PM 55.4 °F - 50.0 °F 82% 30.57 in 6.2 mi NE 15.0 mph - N/A   Scattered Clouds
5:30 PM 55.4 °F - 50.0 °F 82% 30.57 in 6.2 mi ENE 12.7 mph - N/A   Partly Cloudy
6:00 PM 53.6 °F - 50.0 °F 88% 30.57 in 6.2 mi NE 10.4 mph - N/A   Partly Cloudy
6:30 PM 53.6 °F - 48.2 °F 82% 30.57 in 6.2 mi ENE 11.5 mph - N/A   Partly Cloudy
7:00 PM 52 °F - 46 °F 75% 30.61 in 9 mi NE 10.4 mph - -   Partly Cloudy
7:00 PM 53.6 °F - 50.0 °F 88% 30.60 in 6.2 mi NE 9.2 mph - N/A   Partly Cloudy
7:30 PM 53.6 °F - 50.0 °F 88% 30.60 in 6.2 mi NE 9.2 mph - N/A   Partly Cloudy
8:00 PM 53.6 °F - 48.2 °F 82% 30.60 in 6.2 mi ENE 4.6 mph - N/A   Partly Cloudy
8:30 PM 51.8 °F - 48.2 °F 88% 30.63 in 6.2 mi ENE 3.5 mph - N/A   Partly Cloudy
9:00 PM 51.8 °F - 48.2 °F 88% 30.63 in 6.2 mi ENE 3.5 mph - N/A   Partly Cloudy
9:30 PM 51.8 °F - 48.2 °F 88% 30.63 in 6.2 mi East 4.6 mph - N/A   Partly Cloudy
10:00 PM 50.0 °F - 46.4 °F 87% 30.63 in 6.2 mi ENE 8.1 mph - N/A   Partly Cloudy
10:30 PM 50.0 °F - 46.4 °F 87% 30.63 in 6.2 mi ENE 10.4 mph - N/A   Partly Cloudy
11:00 PM 50.0 °F - 46.4 °F 87% 30.66 in 6.2 mi NE 6.9 mph - N/A   Partly Cloudy
11:30 PM 48.2 °F - 44.6 °F 87% 30.66 in 6.2 mi NE 3.5 mph - N/A   Partly Cloudy